Location: Kalama
(46.0086°N, 122.8433°W)
Time: 23:46:25
(UTC-07:00)

ISS - Visible Passes

Search period start: 13 May 2021 00:00
Search period end: 23 May 2021 00:00
Orbit: 417 x 422 km, 51.6° (Epoch: 13 May)

Date Brightness Start Highest point End Pass type
(mag) Time Alt. Az. Time Alt. Az. Time Alt. Az.
13 May -1.3 00:49:36 19° NE 00:49:36 19° NE 00:50:45 10° ENE visible
13 May -1.8 02:22:31 15° NW 02:24:51 30° N 02:27:54 10° ENE visible
13 May -3.3 03:58:41 10° WNW 04:02:04 65° NNE 04:05:25 10° ESE visible
14 May -1.0 00:03:02 12° ENE 00:03:02 12° ENE 00:03:19 10° ENE visible
14 May -1.8 01:35:53 22° NW 01:37:15 30° N 01:40:18 10° ENE visible
14 May -2.7 03:11:16 10° WNW 03:14:34 48° NNE 03:17:51 10° E visible
14 May -3.2 04:48:11 10° WNW 04:51:20 36° SW 04:54:28 10° SSE visible
14 May -2.4 21:33:30 10° S 21:36:00 20° SE 21:38:31 10° E visible
14 May -3.6 23:09:09 10° WSW 23:12:30 74° NNW 23:15:53 10° ENE visible
15 May -1.9 00:46:37 10° WNW 00:49:40 31° N 00:52:44 10° ENE visible
15 May -2.3 02:23:49 10° WNW 02:27:01 38° NNE 02:30:13 10° E visible
15 May -3.8 04:00:38 10° WNW 04:03:58 58° SSW 04:07:17 10° SE visible
15 May -3.9 22:21:43 10° SW 22:25:03 75° SSE 22:28:26 10° ENE visible
15 May -2.1 23:58:58 10° W 00:02:06 34° N 00:05:14 10° ENE visible
16 May -2.0 01:36:21 10° WNW 01:39:27 33° N 01:42:34 10° ENE visible
16 May -3.9 03:13:09 10° WNW 03:16:33 88° SSW 03:19:55 10° ESE visible
16 May -2.0 04:50:54 10° W 04:52:56 15° SW 04:54:56 10° S visible
16 May -3.6 21:34:25 10° SW 21:37:39 48° SE 21:40:56 10° ENE visible
16 May -2.4 23:11:19 10° W 23:14:32 41° NNW 23:17:46 10° ENE visible
17 May -1.8 00:48:49 10° WNW 00:51:52 30° N 00:54:24 13° ENE visible
17 May -1.9 02:25:42 10° WNW 02:33:43 - ESE 02:27:12 24° NW visible
17 May -2.0 04:07:13 17° S 04:07:13 17° S 04:08:24 10° SSE visible
17 May -2.9 22:23:42 10° W 22:27:00 53° NNW 22:30:19 10° ENE visible
18 May -1.8 00:01:15 10° WNW 00:04:16 30° N 00:07:18 10° ENE visible
18 May -2.1 01:38:16 10° WNW 01:40:16 30° NW 01:40:16 30° NW visible
18 May -3.5 21:36:09 10° WSW 21:39:30 74° NNW 21:42:52 10° ENE visible
18 May -1.8 23:13:37 10° WNW 23:16:40 31° N 23:19:44 10° ENE visible
19 May -2.3 00:50:49 10° WNW 00:53:59 38° NNE 00:53:59 38° NNE visible
19 May -2.0 22:25:57 10° W 22:29:04 34° N 22:32:13 10° ENE visible
20 May -2.0 00:03:20 10° WNW 00:06:26 33° N 00:07:51 23° NE visible
20 May -1.2 01:40:08 10° WNW 01:40:47 15° WNW 01:40:47 15° WNW visible
20 May -2.4 21:38:17 10° W 21:41:30 41° NNW 21:44:43 10° ENE visible
20 May -1.9 23:15:48 10° WNW 23:18:50 30° N 23:21:47 11° ENE visible
21 May -2.2 00:52:41 10° WNW 00:54:42 33° NW 00:54:42 33° NW visible
21 May -1.8 22:28:12 10° WNW 22:31:13 30° N 22:34:15 10° ENE visible
22 May -2.9 00:05:14 10° WNW 00:08:31 48° NNE 00:08:40 47° NNE visible
22 May -1.9 21:40:34 10° WNW 21:43:37 31° N 21:46:40 10° ENE visible
22 May -2.4 23:17:45 10° WNW 23:20:57 38° NNE 23:22:40 22° ENE visible
